Tracking 30970 objects as of 3-Jul-2025
HD Live streaming from Space Station
objects crossing your sky now

COSMOS 839 DEB

Track COSMOS 839 DEB now!
10-day predictions


NORAD ID: 18428
Int'l Code: 1976-067BM
Perigee: 926.5 km
Apogee: 2,128.5 km
Inclination: 65.7 °
Period: 116.4 minutes
Semi major axis: 7898 km
RCS: 0.0096 m2 (small)
Launch date: July 8, 1976
Source: Commonwealth of Independent States (former USSR) (CIS)
Launch site: PLESETSK MISSILE AND SPACE COMPLEX (PKMTR)

Note: This is SATELLITE DEBRIS
Your satellite tracking list
EUTE 5 WEST A (STELLAT5)
Track 1 satellite(s)




NASA's NSSDC Master Catalog

Two Line Element Set (TLE):
1 18428U 76067BM  25183.92197949  .00000789  00000-0  24295-2 0  9996
2 18428  65.7323 151.8025 0760887  55.7420 340.1120 12.36763584559647
Source of the keplerian elements: AFSPC